TimeCST,TemperatureF,Dew PointF,Humidity,Sea Level PressureIn,VisibilityMPH,Wind Direction,Wind SpeedMPH,Gust SpeedMPH,PrecipitationIn,Events,Conditions,WindDirDegrees,DateUTC
12:51 AM,39.0,33.1,79,30.21,10.0,WNW,6.9,-,N/A,,Overcast,300,2012-11-05 06:51:00
1:51 AM,39.9,32.0,73,30.21,10.0,Calm,Calm,-,N/A,,Overcast,0,2012-11-05 07:51:00
2:51 AM,39.9,32.0,73,30.20,10.0,West,3.5,-,N/A,,Overcast,270,2012-11-05 08:51:00
3:51 AM,41.0,30.9,67,30.20,10.0,Calm,Calm,-,N/A,,Overcast,0,2012-11-05 09:51:00
4:51 AM,41.0,32.0,70,30.21,10.0,NW,4.6,-,N/A,,Overcast,320,2012-11-05 10:51:00
5:51 AM,42.1,30.9,65,30.20,10.0,North,4.6,-,N/A,,Overcast,360,2012-11-05 11:51:00
6:51 AM,39.9,33.1,77,30.21,10.0,South,4.6,-,N/A,,Overcast,190,2012-11-05 12:51:00
7:51 AM,39.9,33.1,77,30.22,9.0,SSE,4.6,-,N/A,,Overcast,160,2012-11-05 13:51:00
8:51 AM,41.0,32.0,70,30.22,10.0,SSE,3.5,-,N/A,,Overcast,150,2012-11-05 14:51:00
9:51 AM,42.1,30.9,65,30.23,10.0,SE,3.5,-,N/A,,Overcast,140,2012-11-05 15:51:00
10:51 AM,43.0,30.9,62,30.22,10.0,East,9.2,-,N/A,,Overcast,100,2012-11-05 16:51:00
11:44 AM,42.8,30.2,61,30.19,10.0,SE,10.4,-,N/A,,Overcast,130,2012-11-05 17:44:00
11:51 AM,42.1,30.9,65,30.21,10.0,ESE,8.1,-,N/A,,Overcast,120,2012-11-05 17:51:00
12:51 PM,43.0,30.0,60,30.20,10.0,East,12.7,-,N/A,,Overcast,90,2012-11-05 18:51:00
1:21 PM,42.8,28.4,57,30.17,10.0,ESE,13.8,-,N/A,,Overcast,110,2012-11-05 19:21:00
1:51 PM,43.0,28.0,56,30.18,10.0,East,8.1,-,N/A,,Overcast,90,2012-11-05 19:51:00
2:51 PM,42.1,28.0,58,30.18,10.0,East,10.4,-,N/A,,Overcast,90,2012-11-05 20:51:00
3:51 PM,42.1,28.9,60,30.17,10.0,ENE,9.2,-,N/A,,Mostly Cloudy,60,2012-11-05 21:51:00
4:51 PM,41.0,27.0,57,30.19,10.0,NE,5.8,-,N/A,,Mostly Cloudy,40,2012-11-05 22:51:00
5:51 PM,39.9,28.0,63,30.19,10.0,ENE,10.4,-,N/A,,Scattered Clouds,60,2012-11-05 23:51:00
6:51 PM,37.9,27.0,65,30.19,10.0,NE,6.9,-,N/A,,Partly Cloudy,40,2012-11-06 00:51:00
7:51 PM,37.9,27.0,65,30.19,10.0,NNE,4.6,-,N/A,,Partly Cloudy,30,2012-11-06 01:51:00
8:51 PM,39.0,28.0,65,30.17,10.0,East,4.6,-,N/A,,Partly Cloudy,90,2012-11-06 02:51:00
9:51 PM,37.0,28.0,70,30.15,10.0,East,5.8,-,N/A,,Clear,100,2012-11-06 03:51:00
10:51 PM,36.0,27.0,70,30.14,10.0,Calm,Calm,-,N/A,,Clear,0,2012-11-06 04:51:00
11:51 PM,34.0,28.0,79,30.15,10.0,WNW,3.5,-,N/A,,Mostly Cloudy,300,2012-11-06 05:51:00